Change the Weather History Date:

Tuesday, February 4, 2014

  Actual Average Record
Temperature  
Mean Temperature 40 °F -  
Max Temperature 48 °F 28 °F 73 °F (2012)
Min Temperature 33 °F 18 °F -20 °F (1999)
Degree Days  
Heating Degree Days 24    
Moisture  
Dew Point 32 °F    
Average Humidity 61    
Maximum Humidity 76    
Minimum Humidity 44    
Precipitation  
Precipitation 0.00 in - - ()
Sea Level Pressure  
Sea Level Pressure 30.17 in    
Wind  
Wind Speed 22 mph (ESE)    
Max Wind Speed 37 mph    
Max Gust Speed 50 mph    
Visibility 10 miles    
Events      
Averages and records for this station are not official NWS values.
T = Trace of Precipitation, MM = Missing Value Source: NWS Daily Summary

Daily Weather History Graph

Daily Weather History Graph

Search for Another Location

Airport or City:

Trip Planner

Search our weather history database for the weather conditions in past years. The results will help you decide how hot, cold, wet, or windy it might be!

Date:

Astronomy

Feb. 04, 2014 Rise Set
Actual Time 9:26 AM AKST 6:11 PM AKST
Civil Twilight 8:44 AM AKST 6:52 PM AKST
Nautical Twilight 7:59 AM AKST 7:38 PM AKST
Astronomical Twilight 7:14 AM AKST 8:23 PM AKST
Moon 10:57 AM AKST (2/4) 12:21 AM AKST (2/4)
Length of Visible Light 10h 07m
Length of Day
8h 44m
Waxing Crescent, 30% of the Moon is Illuminated
Feb 4
Waxing Crescent
Feb 6
First Quarter
Feb 14
Full
Feb 22
Last Quarter
Feb 28
New

Hourly Weather History & Observations

Time (AKST) Temp. Windchill Dew Point Humidity Pressure Visibility Wind Dir Wind Speed Gust Speed Precip Events Conditions
12:16 AM 42.8 °F 33.8 °F 30.2 °F 61% 29.96 in 10.0 mi East 21.9 mph 31.1 mph N/A   Overcast
12:36 AM 41.0 °F 32.5 °F 30.2 °F 65% 29.97 in 10.0 mi ESE 17.3 mph - N/A   Overcast
12:56 AM 42.8 °F 33.3 °F 30.2 °F 61% 29.96 in 10.0 mi East 24.2 mph 29.9 mph N/A   Overcast
1:16 AM 42.8 °F 33.1 °F 30.2 °F 61% 29.96 in 10.0 mi East 25.3 mph 33.4 mph N/A   Overcast
1:36 AM 42.8 °F 33.3 °F 30.2 °F 61% 29.96 in 10.0 mi East 24.2 mph 28.8 mph N/A   Overcast
1:56 AM 42.8 °F 33.3 °F 30.2 °F 61% 29.96 in 10.0 mi ENE 24.2 mph 32.2 mph N/A   Overcast
2:16 AM 42.8 °F 33.1 °F 30.2 °F 61% 29.96 in 10.0 mi East 25.3 mph 35.7 mph N/A   Overcast
2:36 AM 42.8 °F 32.9 °F 30.2 °F 61% 29.95 in 10.0 mi ENE 26.5 mph 33.4 mph N/A   Overcast
2:56 AM 42.8 °F 32.9 °F 30.2 °F 61% 29.97 in 10.0 mi East 26.5 mph 38.0 mph N/A   Overcast
3:16 AM 42.8 °F 32.9 °F 30.2 °F 61% 29.98 in 10.0 mi ENE 26.5 mph 39.1 mph N/A   Mostly Cloudy
3:36 AM 42.8 °F 32.9 °F 30.2 °F 61% 29.98 in 10.0 mi ENE 26.5 mph 34.5 mph N/A   Overcast
3:56 AM 44.6 °F 36.1 °F 30.2 °F 57% 29.99 in 10.0 mi ENE 21.9 mph 49.5 mph N/A   Overcast
4:16 AM 44.6 °F 36.6 °F 30.2 °F 57% 30.00 in 10.0 mi East 19.6 mph 38.0 mph N/A   Overcast
4:36 AM 44.6 °F 36.4 °F 30.2 °F 57% 30.00 in 10.0 mi East 20.7 mph 33.4 mph N/A   Overcast
4:56 AM 42.8 °F 35.1 °F 30.2 °F 61% 30.01 in 10.0 mi East 16.1 mph 32.2 mph N/A   Mostly Cloudy
5:16 AM 42.8 °F 35.1 °F 30.2 °F 61% 30.02 in 10.0 mi ENE 16.1 mph 31.1 mph N/A   Mostly Cloudy
5:36 AM 42.8 °F 34.5 °F 30.2 °F 61% 30.03 in 10.0 mi ENE 18.4 mph 25.3 mph N/A   Overcast
5:56 AM 42.8 °F 34.3 °F 30.2 °F 61% 30.02 in 10.0 mi East 19.6 mph 25.3 mph N/A   Overcast
6:16 AM 44.6 °F 35.7 °F 32.0 °F 61% 30.02 in 10.0 mi SE 24.2 mph 35.7 mph N/A   Mostly Cloudy
6:36 AM 44.6 °F 37.2 °F 30.2 °F 57% 30.04 in 10.0 mi ESE 17.3 mph 31.1 mph N/A   Mostly Cloudy
6:56 AM 42.8 °F 38.6 °F 30.2 °F 61% 30.06 in 10.0 mi ENE 6.9 mph 25.3 mph N/A   Overcast
7:16 AM 44.6 °F 37.2 °F 30.2 °F 57% 30.07 in 10.0 mi ENE 17.3 mph 26.5 mph N/A   Overcast
7:36 AM 44.6 °F 37.2 °F 30.2 °F 57% 30.07 in 10.0 mi East 17.3 mph 27.6 mph N/A   Overcast
7:56 AM 44.6 °F 35.9 °F 30.2 °F 57% 30.06 in 10.0 mi East 23.0 mph 38.0 mph N/A   Overcast
8:16 AM 44.6 °F 35.9 °F 30.2 °F 57% 30.07 in 10.0 mi ESE 23.0 mph 32.2 mph N/A   Overcast
8:36 AM 44.6 °F 34.7 °F 30.2 °F 57% 30.09 in 10.0 mi East 29.9 mph 36.8 mph N/A   Overcast
8:56 AM 44.6 °F - 30.2 °F 57% 30.09 in 10.0 mi Calm Calm - N/A   Mostly Cloudy
9:16 AM 44.6 °F - 32.0 °F 61% 30.11 in 10.0 mi Calm Calm - N/A   Overcast
9:36 AM 44.6 °F 35.3 °F 30.2 °F 57% 30.13 in 10.0 mi ESE 26.5 mph 39.1 mph N/A   Overcast
9:56 AM 44.6 °F 36.6 °F 32.0 °F 61% 30.13 in 10.0 mi ESE 19.6 mph 39.1 mph N/A   Overcast
10:16 AM 44.6 °F 33.9 °F 30.2 °F 57% 30.11 in 10.0 mi ESE 35.7 mph 47.2 mph N/A   Overcast
10:36 AM 44.6 °F - 33.8 °F 66% 30.14 in 10.0 mi Calm Calm - N/A   Overcast
10:56 AM 44.6 °F - 33.8 °F 66% 30.15 in 10.0 mi Calm Calm - N/A   Mostly Cloudy
11:16 AM 42.8 °F - 33.8 °F 70% 30.15 in 10.0 mi Calm Calm - N/A   Overcast
11:36 AM 42.8 °F - 35.6 °F 76% 30.16 in 10.0 mi Calm Calm - N/A   Scattered Clouds
11:56 AM 44.6 °F 42.2 °F 33.8 °F 66% 30.19 in 10.0 mi SE 4.6 mph - N/A   Clear
12:16 PM 44.6 °F 35.5 °F 33.8 °F 66% 30.19 in 10.0 mi SE 25.3 mph 31.1 mph N/A   Partly Cloudy
12:36 PM 46.4 °F 37.7 °F 33.8 °F 62% 30.19 in 10.0 mi SE 26.5 mph 32.2 mph N/A   Clear
12:56 PM 46.4 °F 37.7 °F 35.6 °F 66% 30.19 in 10.0 mi SE 26.5 mph 36.8 mph N/A   Clear
1:16 PM 46.4 °F 37.2 °F 35.6 °F 66% 30.19 in 10.0 mi SE 29.9 mph 35.7 mph N/A   Clear
1:36 PM 48.2 °F - 33.8 °F 58% 30.19 in 10.0 mi SSE 33.4 mph 41.4 mph N/A   Clear
1:56 PM 48.2 °F - 33.8 °F 58% 30.17 in 10.0 mi SE 36.8 mph 48.3 mph N/A   Clear
2:16 PM - - - N/A% 30.20 in 10.0 mi SE 33.4 mph 41.4 mph N/A   Clear
2:36 PM 48.2 °F - 33.8 °F 58% 30.25 in 10.0 mi SE 21.9 mph 34.5 mph N/A   Partly Cloudy
2:56 PM 48.2 °F - 35.6 °F 62% 30.25 in 10.0 mi SE 25.3 mph 32.2 mph N/A   Mostly Cloudy
3:16 PM - - - N/A% 30.23 in 10.0 mi SE 29.9 mph 42.6 mph N/A   Partly Cloudy
3:36 PM - - - N/A% 30.24 in 10.0 mi SE 31.1 mph 36.8 mph N/A   Clear
3:56 PM 46.4 °F 37.4 °F 33.8 °F 62% 30.24 in 10.0 mi SE 28.8 mph 36.8 mph N/A   Clear
4:16 PM - - - N/A% 30.25 in 10.0 mi SE 29.9 mph 38.0 mph N/A   Clear
4:36 PM - - - N/A% 30.24 in 10.0 mi SE 31.1 mph 42.6 mph N/A   Clear
4:56 PM - - - N/A% 30.25 in 10.0 mi SSE 32.2 mph 38.0 mph N/A   Clear
5:16 PM - - - N/A% 30.25 in 10.0 mi SSE 34.5 mph 48.3 mph N/A   Clear
5:36 PM - - - N/A% 30.25 in 10.0 mi SSE 35.7 mph 43.7 mph N/A   Clear
5:56 PM - - - N/A% 30.26 in 10.0 mi SSE 35.7 mph 42.6 mph N/A   Clear
6:16 PM - - - N/A% 30.27 in 10.0 mi SSE 35.7 mph 46.0 mph N/A   Clear
6:36 PM 44.6 °F 34.6 °F 33.8 °F 66% 30.29 in 10.0 mi SE 31.1 mph 46.0 mph N/A   Clear
6:56 PM 44.6 °F 34.2 °F 33.8 °F 66% 30.30 in 10.0 mi SE 33.4 mph 41.4 mph N/A   Clear
7:16 PM 46.4 °F 36.5 °F 33.8 °F 62% 30.32 in 10.0 mi SE 34.5 mph 41.4 mph N/A   Clear
7:36 PM - - - N/A% 30.32 in 10.0 mi SE 31.1 mph 41.4 mph N/A   Clear
7:56 PM 44.6 °F 34.4 °F 33.8 °F 66% 30.34 in 10.0 mi SE 32.2 mph 43.7 mph N/A   Clear
8:16 PM 44.6 °F 34.1 °F 33.8 °F 66% 30.35 in 10.0 mi SE 34.5 mph 43.7 mph N/A   Clear
8:36 PM 44.6 °F 34.1 °F 33.8 °F 66% 30.35 in 10.0 mi SE 34.5 mph 43.7 mph N/A   Clear
8:56 PM 44.6 °F 34.4 °F 33.8 °F 66% 30.37 in 10.0 mi SE 32.2 mph 40.3 mph N/A   Clear
9:16 PM 44.6 °F 35.7 °F 33.8 °F 66% 30.41 in 10.0 mi ESE 24.2 mph 34.5 mph N/A   Clear
9:36 PM 42.8 °F 33.8 °F 32.0 °F 66% 30.43 in 10.0 mi ESE 21.9 mph 29.9 mph N/A   Clear
9:56 PM 42.8 °F 33.5 °F 32.0 °F 66% 30.43 in 10.0 mi ESE 23.0 mph 32.2 mph N/A   Clear
10:16 PM 42.8 °F 34.0 °F 32.0 °F 66% 30.43 in 10.0 mi ESE 20.7 mph 27.6 mph N/A   Clear
10:36 PM 42.8 °F 34.0 °F 33.8 °F 70% 30.45 in 10.0 mi ESE 20.7 mph 31.1 mph N/A   Clear
10:56 PM 44.6 °F 36.6 °F 32.0 °F 61% 30.46 in 10.0 mi East 19.6 mph 33.4 mph N/A   Clear
11:16 PM 42.8 °F 35.4 °F 30.2 °F 61% 30.47 in 10.0 mi ESE 15.0 mph 24.2 mph N/A   Clear
11:36 PM 42.8 °F 34.0 °F 32.0 °F 66% 30.47 in 10.0 mi ESE 20.7 mph 25.3 mph N/A   Clear
11:56 PM 44.6 °F 36.6 °F 32.0 °F 61% 30.48 in 10.0 mi SE 19.6 mph 28.8 mph N/A   Clear